Location: Newark
(52.0178°N, 4.7453°W)
Time: 16:40:51
(UTC+00:00)

Envisat - Pass Details

Date: 22 March 2019
Orbit: 764 x 766 km, 98.2° (Epoch: 23 April)

Event Time Altitude Azimuth Distance (km) Brightness Sun altitude
Rises 20:20:14 0° 216° (SW) 3,225 6.4 -16.5°
Reaches altitude 10° 20:23:32 10° 239° (WSW) 2,305 5.9 -17.0°
Maximum altitude 20:26:28 15° 274° (W) 1,966 6.1 -17.4°
Drops below altitude 10° 20:29:24 10° 310° (NW) 2,315 6.7 -17.8°
Sets 20:32:44 0° 333° (NNW) 3,247 7.1 -18.2°
